Tracking 35331 objects as of 15-Sep-2026
HD Live streaming from Space Station
objects crossing your sky now

CZ-2C DEB


CZ-2C DEB is no longer on orbit


NORAD ID: 52324
Int'l Code: 2022-043E
Launch date: April 29, 2022
Source: People's Republic of China (PRC)
Launch site: Jiuquan Satellite Launch Center, China (JSC)
Decay date: 2022-10-20

Note: This is SATELLITE DEBRIS
Your satellite tracking list
Your tracking list is empty




NASA's NSSDC Master Catalog

Two Line Element Set (TLE):
1 52324U 22043E   22293.23959888  .04670331  45941-1  67140-2 0  9995
2 52324  97.4284  12.7013 0012028 314.2590  45.7705 16.09742640 26828
Source of the keplerian elements: AFSPC